Time,TemperatureF,DewpointF,PressureIn,WindDirection,WindDirectionDegrees,WindSpeedMPH,WindSpeedGustMPH,Humidity,HourlyPrecipIn,Conditions,Clouds,dailyrainin,SoftwareType,DateUTC
2013-05-31 00:01:00,74.8,63.5,29.96,North,-999,-999.0,-999.0,68,-99.99,,,-99.99,meteohub,2013-05-31 04:01:00,
2013-05-31 00:02:00,75.0,63.7,29.96,North,-999,-999.0,-999.0,68,-99.99,,,-99.99,meteohub,2013-05-31 04:02:00,
2013-05-31 00:03:00,75.0,63.7,29.96,North,-999,-999.0,-999.0,68,-99.99,,,-99.99,meteohub,2013-05-31 04:03:00,
2013-05-31 00:04:00,75.0,63.7,29.96,North,-999,-999.0,-999.0,68,-99.99,,,-99.99,meteohub,2013-05-31 04:04:00,
2013-05-31 00:09:00,74.8,63.5,29.96,North,-999,-999.0,-999.0,68,-99.99,,,-99.99,meteohub,2013-05-31 04:09:00,
2013-05-31 00:14:00,74.8,63.5,29.96,North,-999,-999.0,-999.0,68,-99.99,,,-99.99,meteohub,2013-05-31 04:14:00,
2013-05-31 00:19:00,74.8,63.5,29.96,North,-999,-999.0,-999.0,68,-99.99,,,-99.99,meteohub,2013-05-31 04:19:00,
2013-05-31 00:24:00,74.8,63.1,29.96,North,-999,-999.0,-999.0,67,-99.99,,,-99.99,meteohub,2013-05-31 04:24:00,
2013-05-31 00:29:00,74.7,63.0,29.96,North,-999,-999.0,-999.0,67,-99.99,,,-99.99,meteohub,2013-05-31 04:29:00,
2013-05-31 00:35:00,74.7,63.3,29.96,North,-999,-999.0,-999.0,68,-99.99,,,-99.99,meteohub,2013-05-31 04:35:00,
2013-05-31 00:40:00,74.7,63.0,29.96,North,-999,-999.0,-999.0,67,-99.99,,,-99.99,meteohub,2013-05-31 04:40:00,
2013-05-31 00:45:00,74.7,63.0,29.96,North,-999,-999.0,-999.0,67,-99.99,,,-99.99,meteohub,2013-05-31 04:45:00,
2013-05-31 00:50:00,74.5,63.1,29.96,North,-999,-999.0,-999.0,68,-99.99,,,-99.99,meteohub,2013-05-31 04:50:00,
2013-05-31 00:55:00,74.5,63.1,29.96,North,-999,-999.0,-999.0,68,-99.99,,,-99.99,meteohub,2013-05-31 04:55:00,
2013-05-31 01:00:00,74.3,63.1,29.96,North,-999,-999.0,-999.0,68,-99.99,,,-99.99,meteohub,2013-05-31 05:00:00,
2013-05-31 01:05:00,74.1,63.0,29.96,North,-999,-999.0,-999.0,68,-99.99,,,-99.99,meteohub,2013-05-31 05:05:00,
2013-05-31 01:10:00,74.1,63.0,29.96,North,-999,-999.0,-999.0,68,-99.99,,,-99.99,meteohub,2013-05-31 05:10:00,
2013-05-31 01:15:00,73.9,62.8,29.96,North,-999,-999.0,-999.0,68,-99.99,,,-99.99,meteohub,2013-05-31 05:15:00,
2013-05-31 01:20:00,73.9,62.8,29.96,North,-999,-999.0,-999.0,68,-99.99,,,-99.99,meteohub,2013-05-31 05:20:00,
2013-05-31 01:25:00,73.8,63.0,29.96,North,-999,-999.0,-999.0,69,-99.99,,,-99.99,meteohub,2013-05-31 05:25:00,
2013-05-31 01:31:00,73.6,62.4,29.96,North,-999,-999.0,-999.0,68,-99.99,,,-99.99,meteohub,2013-05-31 05:31:00,
2013-05-31 01:36:00,73.6,62.4,29.96,North,-999,-999.0,-999.0,68,-99.99,,,-99.99,meteohub,2013-05-31 05:36:00,
2013-05-31 01:41:00,73.4,62.6,29.96,North,-999,-999.0,-999.0,69,-99.99,,,-99.99,meteohub,2013-05-31 05:41:00,
2013-05-31 01:46:00,73.2,62.4,29.96,North,-999,-999.0,-999.0,69,-99.99,,,-99.99,meteohub,2013-05-31 05:46:00,
2013-05-31 01:51:00,73.2,62.4,29.96,North,-999,-999.0,-999.0,69,-99.99,,,-99.99,meteohub,2013-05-31 05:51:00,
2013-05-31 01:56:00,73.0,62.2,29.96,North,-999,-999.0,-999.0,69,-99.99,,,-99.99,meteohub,2013-05-31 05:56:00,
2013-05-31 02:01:00,72.9,62.4,29.96,North,-999,-999.0,-999.0,70,-99.99,,,-99.99,meteohub,2013-05-31 06:01:00,
2013-05-31 02:06:00,72.9,62.4,29.96,North,-999,-999.0,-999.0,70,-99.99,,,-99.99,meteohub,2013-05-31 06:06:00,
2013-05-31 02:11:00,72.7,62.4,29.96,North,-999,-999.0,-999.0,70,-99.99,,,-99.99,meteohub,2013-05-31 06:11:00,
2013-05-31 02:16:00,72.5,62.2,29.96,North,-999,-999.0,-999.0,70,-99.99,,,-99.99,meteohub,2013-05-31 06:16:00,
2013-05-31 02:22:00,72.5,62.2,29.96,North,-999,-999.0,-999.0,70,-99.99,,,-99.99,meteohub,2013-05-31 06:22:00,
2013-05-31 02:27:00,72.3,62.4,29.96,North,-999,-999.0,-999.0,71,-99.99,,,-99.99,meteohub,2013-05-31 06:27:00,
2013-05-31 02:32:00,72.3,62.4,29.96,North,-999,-999.0,-999.0,71,-99.99,,,-99.99,meteohub,2013-05-31 06:32:00,
2013-05-31 02:37:00,72.1,62.2,29.96,North,-999,-999.0,-999.0,71,-99.99,,,-99.99,meteohub,2013-05-31 06:37:00,
2013-05-31 02:42:00,72.0,62.1,29.96,North,-999,-999.0,-999.0,71,-99.99,,,-99.99,meteohub,2013-05-31 06:42:00,
2013-05-31 02:47:00,71.8,61.9,29.96,North,-999,-999.0,-999.0,71,-99.99,,,-99.99,meteohub,2013-05-31 06:47:00,
2013-05-31 02:52:00,71.8,61.9,29.96,North,-999,-999.0,-999.0,71,-99.99,,,-99.99,meteohub,2013-05-31 06:52:00,
2013-05-31 02:57:00,71.6,62.1,29.96,North,-999,-999.0,-999.0,72,-99.99,,,-99.99,meteohub,2013-05-31 06:57:00,
2013-05-31 03:02:00,71.6,62.1,29.96,North,-999,-999.0,-999.0,72,-99.99,,,-99.99,meteohub,2013-05-31 07:02:00,
2013-05-31 03:08:00,71.6,62.4,29.96,North,-999,-999.0,-999.0,73,-99.99,,,-99.99,meteohub,2013-05-31 07:08:00,
2013-05-31 03:13:00,71.6,62.4,29.96,North,-999,-999.0,-999.0,73,-99.99,,,-99.99,meteohub,2013-05-31 07:13:00,
2013-05-31 03:18:00,71.4,62.2,29.96,North,-999,-999.0,-999.0,73,-99.99,,,-99.99,meteohub,2013-05-31 07:18:00,
2013-05-31 03:23:00,71.4,62.2,29.96,North,-999,-999.0,-999.0,73,-99.99,,,-99.99,meteohub,2013-05-31 07:23:00,
2013-05-31 03:28:00,71.4,62.8,29.96,North,-999,-999.0,-999.0,74,-99.99,,,-99.99,meteohub,2013-05-31 07:28:00,
2013-05-31 03:33:00,71.2,63.0,29.96,North,-999,-999.0,-999.0,75,-99.99,,,-99.99,meteohub,2013-05-31 07:33:00,
2013-05-31 03:38:00,71.1,62.8,29.96,North,-999,-999.0,-999.0,75,-99.99,,,-99.99,meteohub,2013-05-31 07:38:00,
2013-05-31 03:43:00,71.1,63.1,29.96,North,-999,-999.0,-999.0,76,-99.99,,,-99.99,meteohub,2013-05-31 07:43:00,
2013-05-31 03:48:00,71.1,63.1,29.96,North,-999,-999.0,-999.0,76,-99.99,,,-99.99,meteohub,2013-05-31 07:48:00,
2013-05-31 03:53:00,70.9,63.0,29.96,North,-999,-999.0,-999.0,76,-99.99,,,-99.99,meteohub,2013-05-31 07:53:00,
2013-05-31 03:59:00,70.7,62.8,29.96,North,-999,-999.0,-999.0,76,-99.99,,,-99.99,meteohub,2013-05-31 07:59:00,
2013-05-31 04:04:00,70.7,62.8,29.96,North,-999,-999.0,-999.0,76,-99.99,,,-99.99,meteohub,2013-05-31 08:04:00,
2013-05-31 04:09:00,70.5,63.0,29.96,North,-999,-999.0,-999.0,77,-99.99,,,-99.99,meteohub,2013-05-31 08:09:00,
2013-05-31 04:14:00,70.5,63.0,29.96,North,-999,-999.0,-999.0,77,-99.99,,,-99.99,meteohub,2013-05-31 08:14:00,
2013-05-31 04:19:00,70.3,62.8,29.96,North,-999,-999.0,-999.0,77,-99.99,,,-99.99,meteohub,2013-05-31 08:19:00,
2013-05-31 04:24:00,70.3,63.1,29.96,North,-999,-999.0,-999.0,78,-99.99,,,-99.99,meteohub,2013-05-31 08:24:00,
2013-05-31 04:29:00,70.2,63.0,29.96,North,-999,-999.0,-999.0,78,-99.99,,,-99.99,meteohub,2013-05-31 08:29:00,
2013-05-31 04:34:00,70.0,62.8,29.96,North,-999,-999.0,-999.0,78,-99.99,,,-99.99,meteohub,2013-05-31 08:34:00,
2013-05-31 04:39:00,69.8,62.6,29.96,North,-999,-999.0,-999.0,78,-99.99,,,-99.99,meteohub,2013-05-31 08:39:00,
2013-05-31 04:44:00,69.6,62.8,29.96,North,-999,-999.0,-999.0,79,-99.99,,,-99.99,meteohub,2013-05-31 08:44:00,
2013-05-31 04:50:00,69.4,62.6,29.96,North,-999,-999.0,-999.0,79,-99.99,,,-99.99,meteohub,2013-05-31 08:50:00,
2013-05-31 04:55:00,69.4,62.6,29.96,North,-999,-999.0,-999.0,79,-99.99,,,-99.99,meteohub,2013-05-31 08:55:00,
2013-05-31 05:00:00,69.3,62.8,29.96,North,-999,-999.0,-999.0,80,-99.99,,,-99.99,meteohub,2013-05-31 09:00:00,
2013-05-31 05:05:00,68.9,62.4,29.96,North,-999,-999.0,-999.0,80,-99.99,,,-99.99,meteohub,2013-05-31 09:05:00,
2013-05-31 05:10:00,68.7,62.2,29.96,North,-999,-999.0,-999.0,80,-99.99,,,-99.99,meteohub,2013-05-31 09:10:00,
2013-05-31 05:15:00,68.7,62.2,29.96,North,-999,-999.0,-999.0,80,-99.99,,,-99.99,meteohub,2013-05-31 09:15:00,
2013-05-31 05:20:00,68.5,62.4,29.96,North,-999,-999.0,-999.0,81,-99.99,,,-99.99,meteohub,2013-05-31 09:20:00,
2013-05-31 05:25:00,68.4,62.2,29.96,North,-999,-999.0,-999.0,81,-99.99,,,-99.99,meteohub,2013-05-31 09:25:00,
2013-05-31 05:30:00,68.2,62.1,29.96,North,-999,-999.0,-999.0,81,-99.99,,,-99.99,meteohub,2013-05-31 09:30:00,
2013-05-31 05:36:00,67.8,62.1,29.96,North,-999,-999.0,-999.0,82,-99.99,,,-99.99,meteohub,2013-05-31 09:36:00,
2013-05-31 05:41:00,67.8,62.1,29.96,North,-999,-999.0,-999.0,82,-99.99,,,-99.99,meteohub,2013-05-31 09:41:00,
2013-05-31 05:46:00,67.6,61.9,29.96,North,-999,-999.0,-999.0,82,-99.99,,,-99.99,meteohub,2013-05-31 09:46:00,
2013-05-31 05:51:00,67.5,61.7,29.96,North,-999,-999.0,-999.0,82,-99.99,,,-99.99,meteohub,2013-05-31 09:51:00,
2013-05-31 05:56:00,67.3,61.9,29.96,North,-999,-999.0,-999.0,83,-99.99,,,-99.99,meteohub,2013-05-31 09:56:00,
2013-05-31 06:01:00,67.3,61.9,29.96,North,-999,-999.0,-999.0,83,-99.99,,,-99.99,meteohub,2013-05-31 10:01:00,
2013-05-31 06:06:00,67.1,62.1,29.96,North,-999,-999.0,-999.0,84,-99.99,,,-99.99,meteohub,2013-05-31 10:06:00,
2013-05-31 06:11:00,67.1,62.1,29.96,North,-999,-999.0,-999.0,84,-99.99,,,-99.99,meteohub,2013-05-31 10:11:00,
2013-05-31 06:16:00,67.1,62.4,29.96,North,-999,-999.0,-999.0,85,-99.99,,,-99.99,meteohub,2013-05-31 10:16:00,
2013-05-31 06:22:00,66.9,62.2,29.96,North,-999,-999.0,-999.0,85,-99.99,,,-99.99,meteohub,2013-05-31 10:22:00,
2013-05-31 06:27:00,66.9,62.2,29.96,North,-999,-999.0,-999.0,85,-99.99,,,-99.99,meteohub,2013-05-31 10:27:00,
2013-05-31 06:32:00,66.9,62.6,29.96,North,-999,-999.0,-999.0,86,-99.99,,,-99.99,meteohub,2013-05-31 10:32:00,
2013-05-31 06:37:00,66.9,62.6,29.96,North,-999,-999.0,-999.0,86,-99.99,,,-99.99,meteohub,2013-05-31 10:37:00,
2013-05-31 06:42:00,67.1,62.8,29.96,North,-999,-999.0,-999.0,86,-99.99,,,-99.99,meteohub,2013-05-31 10:42:00,
2013-05-31 06:47:00,67.1,62.8,29.96,North,-999,-999.0,-999.0,86,-99.99,,,-99.99,meteohub,2013-05-31 10:47:00,
2013-05-31 06:52:00,67.1,63.1,29.96,North,-999,-999.0,-999.0,87,-99.99,,,-99.99,meteohub,2013-05-31 10:52:00,
2013-05-31 06:57:00,67.3,63.3,29.96,North,-999,-999.0,-999.0,87,-99.99,,,-99.99,meteohub,2013-05-31 10:57:00,
2013-05-31 07:02:00,67.3,63.3,29.96,North,-999,-999.0,-999.0,87,-99.99,,,-99.99,meteohub,2013-05-31 11:02:00,
2013-05-31 07:07:00,67.5,63.1,29.96,North,-999,-999.0,-999.0,86,-99.99,,,-99.99,meteohub,2013-05-31 11:07:00,
2013-05-31 07:13:00,67.6,63.7,29.96,North,-999,-999.0,-999.0,87,-99.99,,,-99.99,meteohub,2013-05-31 11:13:00,
2013-05-31 07:18:00,68.0,64.0,29.96,North,-999,-999.0,-999.0,87,-99.99,,,-99.99,meteohub,2013-05-31 11:18:00,
2013-05-31 07:23:00,68.4,64.4,29.96,North,-999,-999.0,-999.0,87,-99.99,,,-99.99,meteohub,2013-05-31 11:23:00,
2013-05-31 07:28:00,68.5,64.6,29.96,North,-999,-999.0,-999.0,87,-99.99,,,-99.99,meteohub,2013-05-31 11:28:00,
2013-05-31 07:33:00,68.7,64.8,29.96,North,-999,-999.0,-999.0,87,-99.99,,,-99.99,meteohub,2013-05-31 11:33:00,
2013-05-31 07:38:00,69.4,65.7,29.96,North,-999,-999.0,-999.0,88,-99.99,,,-99.99,meteohub,2013-05-31 11:38:00,
2013-05-31 07:43:00,69.6,65.8,29.96,North,-999,-999.0,-999.0,88,-99.99,,,-99.99,meteohub,2013-05-31 11:43:00,
2013-05-31 07:48:00,70.0,66.2,29.99,North,-999,-999.0,-999.0,88,-99.99,,,-99.99,meteohub,2013-05-31 11:48:00,
2013-05-31 07:53:00,70.3,66.2,29.99,North,-999,-999.0,-999.0,87,-99.99,,,-99.99,meteohub,2013-05-31 11:53:00,
2013-05-31 07:59:00,70.5,66.4,29.99,North,-999,-999.0,-999.0,87,-99.99,,,-99.99,meteohub,2013-05-31 11:59:00,
2013-05-31 08:04:00,70.9,66.7,29.96,North,-999,-999.0,-999.0,87,-99.99,,,-99.99,meteohub,2013-05-31 12:04:00,
2013-05-31 08:09:00,71.1,66.7,29.96,North,-999,-999.0,-999.0,86,-99.99,,,-99.99,meteohub,2013-05-31 12:09:00,
2013-05-31 08:14:00,71.1,66.7,29.96,North,-999,-999.0,-999.0,86,-99.99,,,-99.99,meteohub,2013-05-31 12:14:00,
2013-05-31 08:19:00,71.2,66.6,29.99,North,-999,-999.0,-999.0,85,-99.99,,,-99.99,meteohub,2013-05-31 12:19:00,
2013-05-31 08:24:00,71.4,66.4,29.99,North,-999,-999.0,-999.0,84,-99.99,,,-99.99,meteohub,2013-05-31 12:24:00,
2013-05-31 08:29:00,71.6,66.2,29.99,North,-999,-999.0,-999.0,83,-99.99,,,-99.99,meteohub,2013-05-31 12:29:00,
2013-05-31 08:34:00,71.8,66.4,29.99,North,-999,-999.0,-999.0,83,-99.99,,,-99.99,meteohub,2013-05-31 12:34:00,
2013-05-31 08:39:00,72.0,66.2,29.99,North,-999,-999.0,-999.0,82,-99.99,,,-99.99,meteohub,2013-05-31 12:39:00,
2013-05-31 08:45:00,72.1,66.0,29.99,North,-999,-999.0,-999.0,81,-99.99,,,-99.99,meteohub,2013-05-31 12:45:00,
2013-05-31 08:50:00,72.3,66.2,29.99,North,-999,-999.0,-999.0,81,-99.99,,,-99.99,meteohub,2013-05-31 12:50:00,
2013-05-31 08:55:00,72.7,66.6,29.99,North,-999,-999.0,-999.0,81,-99.99,,,-99.99,meteohub,2013-05-31 12:55:00,
2013-05-31 09:00:00,72.9,66.4,29.99,North,-999,-999.0,-999.0,80,-99.99,,,-99.99,meteohub,2013-05-31 13:00:00,
2013-05-31 09:05:00,73.0,66.6,29.96,North,-999,-999.0,-999.0,80,-99.99,,,-99.99,meteohub,2013-05-31 13:05:00,
2013-05-31 09:10:00,73.4,66.6,29.96,North,-999,-999.0,-999.0,79,-99.99,,,-99.99,meteohub,2013-05-31 13:10:00,
2013-05-31 09:15:00,73.6,66.7,29.96,North,-999,-999.0,-999.0,79,-99.99,,,-99.99,meteohub,2013-05-31 13:15:00,
2013-05-31 09:20:00,73.9,66.6,29.96,North,-999,-999.0,-999.0,78,-99.99,,,-99.99,meteohub,2013-05-31 13:20:00,
2013-05-31 09:25:00,74.1,66.4,29.96,North,-999,-999.0,-999.0,77,-99.99,,,-99.99,meteohub,2013-05-31 13:25:00,
2013-05-31 09:30:00,74.1,66.0,29.96,North,-999,-999.0,-999.0,76,-99.99,,,-99.99,meteohub,2013-05-31 13:30:00,
2013-05-31 09:36:00,74.1,66.0,29.99,North,-999,-999.0,-999.0,76,-99.99,,,-99.99,meteohub,2013-05-31 13:36:00,
2013-05-31 09:41:00,74.5,66.4,29.99,North,-999,-999.0,-999.0,76,-99.99,,,-99.99,meteohub,2013-05-31 13:41:00,
2013-05-31 09:46:00,74.8,66.4,29.99,North,-999,-999.0,-999.0,75,-99.99,,,-99.99,meteohub,2013-05-31 13:46:00,
2013-05-31 09:51:00,75.2,66.4,29.96,North,-999,-999.0,-999.0,74,-99.99,,,-99.99,meteohub,2013-05-31 13:51:00,
2013-05-31 09:56:00,75.2,66.0,29.96,North,-999,-999.0,-999.0,73,-99.99,,,-99.99,meteohub,2013-05-31 13:56:00,
2013-05-31 10:01:00,75.6,65.1,29.96,North,-999,-999.0,-999.0,70,-99.99,,,-99.99,meteohub,2013-05-31 14:01:00,
2013-05-31 10:06:00,75.9,65.5,29.99,North,-999,-999.0,-999.0,70,-99.99,,,-99.99,meteohub,2013-05-31 14:06:00,
2013-05-31 10:11:00,76.1,65.7,29.99,North,-999,-999.0,-999.0,70,-99.99,,,-99.99,meteohub,2013-05-31 14:11:00,
2013-05-31 10:17:00,76.5,65.5,29.99,North,-999,-999.0,-999.0,69,-99.99,,,-99.99,meteohub,2013-05-31 14:17:00,
2013-05-31 10:22:00,76.5,65.1,29.96,North,-999,-999.0,-999.0,68,-99.99,,,-99.99,meteohub,2013-05-31 14:22:00,
2013-05-31 10:27:00,76.6,65.7,29.96,North,-999,-999.0,-999.0,69,-99.99,,,-99.99,meteohub,2013-05-31 14:27:00,
2013-05-31 10:32:00,76.8,65.8,29.96,North,-999,-999.0,-999.0,69,-99.99,,,-99.99,meteohub,2013-05-31 14:32:00,
2013-05-31 10:37:00,77.0,65.7,29.99,North,-999,-999.0,-999.0,68,-99.99,,,-99.99,meteohub,2013-05-31 14:37:00,
2013-05-31 10:42:00,77.4,65.5,29.99,North,-999,-999.0,-999.0,67,-99.99,,,-99.99,meteohub,2013-05-31 14:42:00,
2013-05-31 10:47:00,77.4,65.5,29.99,North,-999,-999.0,-999.0,67,-99.99,,,-99.99,meteohub,2013-05-31 14:47:00,
2013-05-31 10:52:00,77.5,65.7,29.99,North,-999,-999.0,-999.0,67,-99.99,,,-99.99,meteohub,2013-05-31 14:52:00,
2013-05-31 10:57:00,77.4,65.1,29.99,North,-999,-999.0,-999.0,66,-99.99,,,-99.99,meteohub,2013-05-31 14:57:00,
2013-05-31 11:03:00,77.9,65.1,29.99,North,-999,-999.0,-999.0,65,-99.99,,,-99.99,meteohub,2013-05-31 15:03:00,
2013-05-31 11:08:00,78.1,64.4,29.99,North,-999,-999.0,-999.0,63,-99.99,,,-99.99,meteohub,2013-05-31 15:08:00,
2013-05-31 11:13:00,78.4,65.3,29.99,North,-999,-999.0,-999.0,64,-99.99,,,-99.99,meteohub,2013-05-31 15:13:00,
2013-05-31 11:18:00,78.6,64.9,29.99,North,-999,-999.0,-999.0,63,-99.99,,,-99.99,meteohub,2013-05-31 15:18:00,
2013-05-31 11:23:00,79.2,65.5,29.99,North,-999,-999.0,-999.0,63,-99.99,,,-99.99,meteohub,2013-05-31 15:23:00,
2013-05-31 11:28:00,79.2,64.6,29.99,North,-999,-999.0,-999.0,61,-99.99,,,-99.99,meteohub,2013-05-31 15:28:00,
2013-05-31 11:33:00,79.9,64.8,29.99,North,-999,-999.0,-999.0,60,-99.99,,,-99.99,meteohub,2013-05-31 15:33:00,
2013-05-31 11:38:00,80.4,65.3,29.99,North,-999,-999.0,-999.0,60,-99.99,,,-99.99,meteohub,2013-05-31 15:38:00,
2013-05-31 11:43:00,81.1,64.9,29.99,North,-999,-999.0,-999.0,58,-99.99,,,-99.99,meteohub,2013-05-31 15:43:00,
2013-05-31 11:48:00,81.1,64.9,29.99,North,-999,-999.0,-999.0,58,-99.99,,,-99.99,meteohub,2013-05-31 15:48:00,
2013-05-31 11:54:00,82.2,64.9,29.99,North,-999,-999.0,-999.0,56,-99.99,,,-99.99,meteohub,2013-05-31 15:54:00,
2013-05-31 11:59:00,82.8,63.9,29.99,North,-999,-999.0,-999.0,53,-99.99,,,-99.99,meteohub,2013-05-31 15:59:00,
2013-05-31 12:04:00,82.4,63.5,29.99,North,-999,-999.0,-999.0,53,-99.99,,,-99.99,meteohub,2013-05-31 16:04:00,
2013-05-31 12:09:00,81.7,62.4,29.99,North,-999,-999.0,-999.0,52,-99.99,,,-99.99,meteohub,2013-05-31 16:09:00,
2013-05-31 12:14:00,83.7,65.3,29.99,North,-999,-999.0,-999.0,54,-99.99,,,-99.99,meteohub,2013-05-31 16:14:00,
2013-05-31 12:19:00,84.2,64.6,29.99,North,-999,-999.0,-999.0,52,-99.99,,,-99.99,meteohub,2013-05-31 16:19:00,
2013-05-31 12:24:00,83.8,63.9,29.99,North,-999,-999.0,-999.0,51,-99.99,,,-99.99,meteohub,2013-05-31 16:24:00,
2013-05-31 12:29:00,84.2,63.5,29.99,North,-999,-999.0,-999.0,50,-99.99,,,-99.99,meteohub,2013-05-31 16:29:00,
2013-05-31 12:34:00,84.0,62.2,29.96,North,-999,-999.0,-999.0,48,-99.99,,,-99.99,meteohub,2013-05-31 16:34:00,
2013-05-31 12:40:00,84.7,63.0,29.96,North,-999,-999.0,-999.0,48,-99.99,,,-99.99,meteohub,2013-05-31 16:40:00,
2013-05-31 12:45:00,84.6,60.8,29.96,North,-999,-999.0,-999.0,45,-99.99,,,-99.99,meteohub,2013-05-31 16:45:00,
2013-05-31 12:50:00,84.4,60.8,29.96,North,-999,-999.0,-999.0,45,-99.99,,,-99.99,meteohub,2013-05-31 16:50:00,
2013-05-31 12:55:00,84.2,61.2,29.96,North,-999,-999.0,-999.0,46,-99.99,,,-99.99,meteohub,2013-05-31 16:55:00,
2013-05-31 13:00:00,84.6,60.8,29.96,North,-999,-999.0,-999.0,45,-99.99,,,-99.99,meteohub,2013-05-31 17:00:00,
2013-05-31 13:05:00,85.6,63.1,29.96,North,-999,-999.0,-999.0,47,-99.99,,,-99.99,meteohub,2013-05-31 17:05:00,
2013-05-31 13:10:00,85.5,61.7,29.96,North,-999,-999.0,-999.0,45,-99.99,,,-99.99,meteohub,2013-05-31 17:10:00,
2013-05-31 13:15:00,84.9,60.6,29.96,North,-999,-999.0,-999.0,44,-99.99,,,-99.99,meteohub,2013-05-31 17:15:00,
2013-05-31 13:20:00,84.7,61.0,29.96,North,-999,-999.0,-999.0,45,-99.99,,,-99.99,meteohub,2013-05-31 17:20:00,
2013-05-31 13:26:00,84.9,61.2,29.96,North,-999,-999.0,-999.0,45,-99.99,,,-99.99,meteohub,2013-05-31 17:26:00,
2013-05-31 13:31:00,86.0,61.5,29.96,North,-999,-999.0,-999.0,44,-99.99,,,-99.99,meteohub,2013-05-31 17:31:00,
2013-05-31 13:36:00,86.4,61.9,29.96,North,-999,-999.0,-999.0,44,-99.99,,,-99.99,meteohub,2013-05-31 17:36:00,
2013-05-31 13:41:00,86.9,61.7,29.96,North,-999,-999.0,-999.0,43,-99.99,,,-99.99,meteohub,2013-05-31 17:41:00,
2013-05-31 13:46:00,86.5,60.8,29.96,North,-999,-999.0,-999.0,42,-99.99,,,-99.99,meteohub,2013-05-31 17:46:00,
2013-05-31 13:51:00,86.0,59.5,29.96,North,-999,-999.0,-999.0,41,-99.99,,,-99.99,meteohub,2013-05-31 17:51:00,
2013-05-31 13:56:00,86.0,60.3,29.96,North,-999,-999.0,-999.0,42,-99.99,,,-99.99,meteohub,2013-05-31 17:56:00,
2013-05-31 14:01:00,86.0,59.5,29.96,North,-999,-999.0,-999.0,41,-99.99,,,-99.99,meteohub,2013-05-31 18:01:00,
2013-05-31 14:06:00,86.4,59.9,29.96,North,-999,-999.0,-999.0,41,-99.99,,,-99.99,meteohub,2013-05-31 18:06:00,
2013-05-31 14:11:00,86.9,59.7,29.96,North,-999,-999.0,-999.0,40,-99.99,,,-99.99,meteohub,2013-05-31 18:11:00,
2013-05-31 14:17:00,87.1,59.9,29.96,North,-999,-999.0,-999.0,40,-99.99,,,-99.99,meteohub,2013-05-31 18:17:00,
2013-05-31 14:22:00,87.3,59.9,29.93,North,-999,-999.0,-999.0,40,-99.99,,,-99.99,meteohub,2013-05-31 18:22:00,
2013-05-31 14:27:00,87.1,60.4,29.93,North,-999,-999.0,-999.0,41,-99.99,,,-99.99,meteohub,2013-05-31 18:27:00,
2013-05-31 14:32:00,87.3,62.1,29.93,North,-999,-999.0,-999.0,43,-99.99,,,-99.99,meteohub,2013-05-31 18:32:00,
2013-05-31 14:37:00,87.1,59.2,29.93,North,-999,-999.0,-999.0,39,-99.99,,,-99.99,meteohub,2013-05-31 18:37:00,
2013-05-31 14:42:00,86.7,59.5,29.93,North,-999,-999.0,-999.0,40,-99.99,,,-99.99,meteohub,2013-05-31 18:42:00,
2013-05-31 14:47:00,86.5,60.1,29.93,North,-999,-999.0,-999.0,41,-99.99,,,-99.99,meteohub,2013-05-31 18:47:00,
2013-05-31 14:52:00,87.1,59.9,29.93,North,-999,-999.0,-999.0,40,-99.99,,,-99.99,meteohub,2013-05-31 18:52:00,
2013-05-31 14:57:00,87.1,59.9,29.93,North,-999,-999.0,-999.0,40,-99.99,,,-99.99,meteohub,2013-05-31 18:57:00,
2013-05-31 15:02:00,87.6,61.0,29.93,North,-999,-999.0,-999.0,41,-99.99,,,-99.99,meteohub,2013-05-31 19:02:00,
2013-05-31 15:08:00,88.0,61.3,29.93,North,-999,-999.0,-999.0,41,-99.99,,,-99.99,meteohub,2013-05-31 19:08:00,
2013-05-31 15:13:00,86.9,59.7,29.93,North,-999,-999.0,-999.0,40,-99.99,,,-99.99,meteohub,2013-05-31 19:13:00,
2013-05-31 15:18:00,87.6,60.3,29.93,North,-999,-999.0,-999.0,40,-99.99,,,-99.99,meteohub,2013-05-31 19:18:00,
2013-05-31 15:23:00,87.4,60.1,29.93,North,-999,-999.0,-999.0,40,-99.99,,,-99.99,meteohub,2013-05-31 19:23:00,
2013-05-31 15:28:00,86.7,59.5,29.93,North,-999,-999.0,-999.0,40,-99.99,,,-99.99,meteohub,2013-05-31 19:28:00,
2013-05-31 15:33:00,85.8,58.6,29.93,North,-999,-999.0,-999.0,40,-99.99,,,-99.99,meteohub,2013-05-31 19:33:00,
2013-05-31 15:38:00,85.1,58.8,29.93,North,-999,-999.0,-999.0,41,-99.99,,,-99.99,meteohub,2013-05-31 19:38:00,
2013-05-31 15:43:00,86.0,59.5,29.93,North,-999,-999.0,-999.0,41,-99.99,,,-99.99,meteohub,2013-05-31 19:43:00,
2013-05-31 15:48:00,86.5,60.1,29.90,North,-999,-999.0,-999.0,41,-99.99,,,-99.99,meteohub,2013-05-31 19:48:00,
2013-05-31 15:54:00,85.1,58.8,29.90,North,-999,-999.0,-999.0,41,-99.99,,,-99.99,meteohub,2013-05-31 19:54:00,
2013-05-31 15:59:00,84.6,59.0,29.90,North,-999,-999.0,-999.0,42,-99.99,,,-99.99,meteohub,2013-05-31 19:59:00,
2013-05-31 16:04:00,85.6,59.9,29.90,North,-999,-999.0,-999.0,42,-99.99,,,-99.99,meteohub,2013-05-31 20:04:00,
2013-05-31 16:09:00,85.8,60.1,29.90,North,-999,-999.0,-999.0,42,-99.99,,,-99.99,meteohub,2013-05-31 20:09:00,
2013-05-31 16:14:00,85.1,59.4,29.90,North,-999,-999.0,-999.0,42,-99.99,,,-99.99,meteohub,2013-05-31 20:14:00,
2013-05-31 16:19:00,85.5,59.7,29.90,North,-999,-999.0,-999.0,42,-99.99,,,-99.99,meteohub,2013-05-31 20:19:00,
2013-05-31 16:24:00,85.8,60.8,29.90,North,-999,-999.0,-999.0,43,-99.99,,,-99.99,meteohub,2013-05-31 20:24:00,
2013-05-31 16:29:00,86.5,61.3,29.90,North,-999,-999.0,-999.0,43,-99.99,,,-99.99,meteohub,2013-05-31 20:29:00,
2013-05-31 16:34:00,86.5,60.8,29.90,North,-999,-999.0,-999.0,42,-99.99,,,-99.99,meteohub,2013-05-31 20:34:00,
2013-05-31 16:40:00,86.9,61.0,29.90,North,-999,-999.0,-999.0,42,-99.99,,,-99.99,meteohub,2013-05-31 20:40:00,
2013-05-31 16:45:00,86.7,60.3,29.90,North,-999,-999.0,-999.0,41,-99.99,,,-99.99,meteohub,2013-05-31 20:45:00,
2013-05-31 16:50:00,86.7,60.3,29.90,North,-999,-999.0,-999.0,41,-99.99,,,-99.99,meteohub,2013-05-31 20:50:00,
2013-05-31 16:55:00,86.4,59.9,29.90,North,-999,-999.0,-999.0,41,-99.99,,,-99.99,meteohub,2013-05-31 20:55:00,
2013-05-31 17:00:00,85.8,60.1,29.90,North,-999,-999.0,-999.0,42,-99.99,,,-99.99,meteohub,2013-05-31 21:00:00,
2013-05-31 17:05:00,85.3,59.5,29.90,North,-999,-999.0,-999.0,42,-99.99,,,-99.99,meteohub,2013-05-31 21:05:00,
2013-05-31 17:10:00,84.9,59.9,29.90,North,-999,-999.0,-999.0,43,-99.99,,,-99.99,meteohub,2013-05-31 21:10:00,
2013-05-31 17:15:00,85.1,60.1,29.90,North,-999,-999.0,-999.0,43,-99.99,,,-99.99,meteohub,2013-05-31 21:15:00,
2013-05-31 17:20:00,85.6,61.2,29.90,North,-999,-999.0,-999.0,44,-99.99,,,-99.99,meteohub,2013-05-31 21:20:00,
2013-05-31 17:25:00,85.6,60.6,29.90,North,-999,-999.0,-999.0,43,-99.99,,,-99.99,meteohub,2013-05-31 21:25:00,
2013-05-31 17:31:00,85.3,61.0,29.90,North,-999,-999.0,-999.0,44,-99.99,,,-99.99,meteohub,2013-05-31 21:31:00,
2013-05-31 17:36:00,85.5,60.4,29.90,North,-999,-999.0,-999.0,43,-99.99,,,-99.99,meteohub,2013-05-31 21:36:00,
2013-05-31 17:41:00,85.1,60.1,29.90,North,-999,-999.0,-999.0,43,-99.99,,,-99.99,meteohub,2013-05-31 21:41:00,
2013-05-31 17:46:00,85.3,60.3,29.90,North,-999,-999.0,-999.0,43,-99.99,,,-99.99,meteohub,2013-05-31 21:46:00,
2013-05-31 17:51:00,85.3,60.3,29.87,North,-999,-999.0,-999.0,43,-99.99,,,-99.99,meteohub,2013-05-31 21:51:00,
2013-05-31 17:56:00,85.5,60.4,29.87,North,-999,-999.0,-999.0,43,-99.99,,,-99.99,meteohub,2013-05-31 21:56:00,
2013-05-31 18:01:00,85.5,60.4,29.87,North,-999,-999.0,-999.0,43,-99.99,,,-99.99,meteohub,2013-05-31 22:01:00,
2013-05-31 18:06:00,85.3,60.3,29.87,North,-999,-999.0,-999.0,43,-99.99,,,-99.99,meteohub,2013-05-31 22:06:00,
2013-05-31 18:11:00,85.3,59.5,29.87,North,-999,-999.0,-999.0,42,-99.99,,,-99.99,meteohub,2013-05-31 22:11:00,
2013-05-31 18:17:00,85.5,59.7,29.87,North,-999,-999.0,-999.0,42,-99.99,,,-99.99,meteohub,2013-05-31 22:17:00,
2013-05-31 18:22:00,85.3,59.5,29.87,North,-999,-999.0,-999.0,42,-99.99,,,-99.99,meteohub,2013-05-31 22:22:00,
2013-05-31 18:27:00,85.1,59.4,29.87,North,-999,-999.0,-999.0,42,-99.99,,,-99.99,meteohub,2013-05-31 22:27:00,
2013-05-31 18:32:00,85.1,59.4,29.87,North,-999,-999.0,-999.0,42,-99.99,,,-99.99,meteohub,2013-05-31 22:32:00,
2013-05-31 18:37:00,84.7,60.4,29.87,North,-999,-999.0,-999.0,44,-99.99,,,-99.99,meteohub,2013-05-31 22:37:00,
2013-05-31 18:42:00,84.7,60.4,29.87,North,-999,-999.0,-999.0,44,-99.99,,,-99.99,meteohub,2013-05-31 22:42:00,
2013-05-31 18:47:00,84.6,60.3,29.87,North,-999,-999.0,-999.0,44,-99.99,,,-99.99,meteohub,2013-05-31 22:47:00,
2013-05-31 18:52:00,84.7,60.4,29.87,North,-999,-999.0,-999.0,44,-99.99,,,-99.99,meteohub,2013-05-31 22:52:00,
2013-05-31 18:57:00,84.6,60.3,29.87,North,-999,-999.0,-999.0,44,-99.99,,,-99.99,meteohub,2013-05-31 22:57:00,
2013-05-31 19:03:00,84.6,60.8,29.87,North,-999,-999.0,-999.0,45,-99.99,,,-99.99,meteohub,2013-05-31 23:03:00,
2013-05-31 19:08:00,84.4,60.1,29.87,North,-999,-999.0,-999.0,44,-99.99,,,-99.99,meteohub,2013-05-31 23:08:00,
2013-05-31 19:13:00,84.2,60.6,29.87,North,-999,-999.0,-999.0,45,-99.99,,,-99.99,meteohub,2013-05-31 23:13:00,
2013-05-31 19:18:00,84.0,60.4,29.87,North,-999,-999.0,-999.0,45,-99.99,,,-99.99,meteohub,2013-05-31 23:18:00,
2013-05-31 19:23:00,83.8,60.3,29.87,North,-999,-999.0,-999.0,45,-99.99,,,-99.99,meteohub,2013-05-31 23:23:00,
2013-05-31 19:28:00,83.5,59.9,29.87,North,-999,-999.0,-999.0,45,-99.99,,,-99.99,meteohub,2013-05-31 23:28:00,
2013-05-31 19:33:00,83.3,60.4,29.87,North,-999,-999.0,-999.0,46,-99.99,,,-99.99,meteohub,2013-05-31 23:33:00,
2013-05-31 19:38:00,83.1,60.3,29.87,North,-999,-999.0,-999.0,46,-99.99,,,-99.99,meteohub,2013-05-31 23:38:00,
2013-05-31 19:43:00,82.8,60.4,29.87,North,-999,-999.0,-999.0,47,-99.99,,,-99.99,meteohub,2013-05-31 23:43:00,
2013-05-31 19:49:00,82.6,60.3,29.87,North,-999,-999.0,-999.0,47,-99.99,,,-99.99,meteohub,2013-05-31 23:49:00,
2013-05-31 19:54:00,82.0,60.4,29.87,North,-999,-999.0,-999.0,48,-99.99,,,-99.99,meteohub,2013-05-31 23:54:00,
2013-05-31 19:59:00,81.9,60.8,29.87,North,-999,-999.0,-999.0,49,-99.99,,,-99.99,meteohub,2013-05-31 23:59:00,